Time,TemperatureF,DewpointF,PressureIn,WindDirection,WindDirectionDegrees,WindSpeedMPH,WindSpeedGustMPH,Humidity,HourlyPrecipIn,Conditions,Clouds,dailyrainin,SoftwareType,DateUTC
2013-02-22 00:00:00,24.4,-7.2,30.27,North,0,4.9,5.8,24,0.00,,---,0.00,VWS V14.01,2013-02-22 05:00:00,
2013-02-22 00:05:00,24.3,-7.3,30.27,NW,315,1.6,6.0,24,0.00,,---,0.00,VWS V14.01,2013-02-22 05:05:00,
2013-02-22 00:10:00,24.3,-7.3,30.27,North,0,2.7,8.1,24,0.00,,---,0.00,VWS V14.01,2013-02-22 05:10:00,
2013-02-22 00:16:00,24.3,-7.3,30.27,NNW,338,7.4,8.5,24,0.00,,---,0.00,VWS V14.01,2013-02-22 05:16:00,
2013-02-22 00:20:00,24.3,-7.3,30.27,NNW,338,3.8,8.5,24,0.00,,---,0.00,VWS V14.01,2013-02-22 05:20:00,
2013-02-22 00:21:00,24.1,-7.5,30.27,NNW,338,3.1,3.8,24,0.00,,---,0.00,VWS V14.01,2013-02-22 05:21:00,
2013-02-22 00:26:00,23.9,-7.6,30.27,NNW,338,2.5,5.6,24,0.00,,---,0.00,VWS V14.01,2013-02-22 05:26:00,
2013-02-22 00:30:00,23.9,-7.6,30.27,NNW,338,5.6,5.6,24,0.00,,---,0.00,VWS V14.01,2013-02-22 05:30:00,
2013-02-22 00:31:00,23.9,-7.6,30.27,WNW,292,3.1,5.8,24,0.00,,---,0.00,VWS V14.01,2013-02-22 05:31:00,
2013-02-22 00:36:00,23.9,-7.6,30.27,NW,315,2.0,5.8,24,0.00,,---,0.00,VWS V14.01,2013-02-22 05:36:00,
2013-02-22 00:40:00,23.9,-7.6,30.27,WNW,292,4.0,5.8,24,0.00,,---,0.00,VWS V14.01,2013-02-22 05:40:00,
2013-02-22 00:41:00,23.9,-7.6,30.27,NW,315,3.4,6.9,24,0.00,,---,0.00,VWS V14.01,2013-02-22 05:41:00,
2013-02-22 00:46:00,23.9,-7.6,30.27,North,0,3.1,6.9,24,0.00,,---,0.00,VWS V14.01,2013-02-22 05:46:00,
2013-02-22 00:50:00,23.9,-7.6,30.27,NNW,338,2.5,6.9,24,0.00,,---,0.00,VWS V14.01,2013-02-22 05:50:00,
2013-02-22 00:51:00,23.7,-7.8,30.27,West,270,3.1,5.8,24,0.00,,---,0.00,VWS V14.01,2013-02-22 05:51:00,
2013-02-22 00:56:00,23.7,-7.8,30.27,North,0,3.1,6.3,24,0.00,,---,0.00,VWS V14.01,2013-02-22 05:56:00,
2013-02-22 01:00:00,23.7,-7.8,30.27,NNW,338,3.4,6.3,24,0.00,,---,0.00,VWS V14.01,2013-02-22 06:00:00,
2013-02-22 01:01:00,23.7,-7.8,30.27,NW,315,3.6,4.9,24,0.00,,---,0.00,VWS V14.01,2013-02-22 06:01:00,
2013-02-22 01:06:00,23.5,-7.9,30.27,West,270,2.9,4.9,24,0.00,,---,0.00,VWS V14.01,2013-02-22 06:06:00,
2013-02-22 01:10:00,23.5,-7.9,30.27,NNE,22,1.6,4.9,24,0.00,,---,0.00,VWS V14.01,2013-02-22 06:10:00,
2013-02-22 01:12:00,23.5,-7.9,30.27,North,0,5.8,5.8,24,0.00,,---,0.00,VWS V14.01,2013-02-22 06:12:00,
2013-02-22 01:17:00,23.5,-7.9,30.27,North,0,7.8,7.8,24,0.00,,---,0.00,VWS V14.01,2013-02-22 06:17:00,
2013-02-22 01:20:00,23.5,-7.9,30.27,NNE,22,8.1,8.1,24,0.00,,---,0.00,VWS V14.01,2013-02-22 06:20:00,
2013-02-22 01:22:00,23.5,-7.9,30.27,NW,315,5.4,10.5,24,0.00,,---,0.00,VWS V14.01,2013-02-22 06:22:00,
2013-02-22 01:27:00,23.5,-7.9,30.27,NNW,338,5.4,10.5,24,0.00,,---,0.00,VWS V14.01,2013-02-22 06:27:00,
2013-02-22 01:30:00,23.5,-7.9,30.27,NNW,338,5.4,10.5,24,0.00,,---,0.00,VWS V14.01,2013-02-22 06:30:00,
2013-02-22 01:32:00,23.5,-7.9,30.27,NNW,338,6.3,8.1,24,0.00,,---,0.00,VWS V14.01,2013-02-22 06:32:00,
2013-02-22 01:37:00,23.4,-8.1,30.27,NW,315,1.1,8.1,24,0.00,,---,0.00,VWS V14.01,2013-02-22 06:37:00,
2013-02-22 01:40:00,23.4,-8.1,30.27,NW,315,1.1,8.1,24,0.00,,---,0.00,VWS V14.01,2013-02-22 06:40:00,
2013-02-22 01:42:00,23.4,-8.1,30.27,NNW,338,3.6,7.4,24,0.00,,---,0.00,VWS V14.01,2013-02-22 06:42:00,
2013-02-22 01:47:00,23.4,-8.1,30.27,NNE,22,2.5,3.4,24,0.00,,---,0.00,VWS V14.01,2013-02-22 06:47:00,
2013-02-22 01:50:00,23.4,-8.1,30.27,NE,45,1.1,7.4,24,0.00,,---,0.00,VWS V14.01,2013-02-22 06:50:00,
2013-02-22 01:52:00,23.4,-8.1,30.27,NNW,338,3.8,6.3,24,0.00,,---,0.00,VWS V14.01,2013-02-22 06:52:00,
2013-02-22 01:57:00,23.2,-8.2,30.27,North,0,2.5,4.3,24,0.00,,---,0.00,VWS V14.01,2013-02-22 06:57:00,
2013-02-22 02:00:00,23.2,-8.2,30.27,WNW,292,4.3,7.2,24,0.00,,---,0.00,VWS V14.01,2013-02-22 07:00:00,
2013-02-22 02:02:00,23.4,-8.1,30.27,NW,315,3.8,7.2,24,0.00,,---,0.00,VWS V14.01,2013-02-22 07:02:00,
2013-02-22 02:07:00,23.2,-8.2,30.27,NW,315,2.7,4.7,24,0.00,,---,0.00,VWS V14.01,2013-02-22 07:07:00,
2013-02-22 02:10:00,23.2,-8.2,30.27,NW,315,4.7,7.2,24,0.00,,---,0.00,VWS V14.01,2013-02-22 07:10:00,
2013-02-22 02:13:00,23.0,-7.6,30.27,NNW,338,3.4,6.3,25,0.00,,---,0.00,VWS V14.01,2013-02-22 07:13:00,
2013-02-22 02:18:00,23.0,-7.6,30.27,NW,315,2.7,3.8,25,0.00,,---,0.00,VWS V14.01,2013-02-22 07:18:00,
2013-02-22 02:20:00,23.0,-7.6,30.27,NW,315,3.6,6.3,25,0.00,,---,0.00,VWS V14.01,2013-02-22 07:20:00,
2013-02-22 02:23:00,23.0,-7.6,30.27,NW,315,2.7,5.6,25,0.00,,---,0.00,VWS V14.01,2013-02-22 07:23:00,
2013-02-22 02:28:00,23.0,-7.6,30.27,NW,315,5.8,5.8,25,0.00,,---,0.00,VWS V14.01,2013-02-22 07:28:00,
2013-02-22 02:30:00,23.0,-7.6,30.27,NNW,338,4.3,5.6,25,0.00,,---,0.00,VWS V14.01,2013-02-22 07:30:00,
2013-02-22 02:33:00,23.0,-7.6,30.27,NW,315,2.9,6.9,25,0.00,,---,0.00,VWS V14.01,2013-02-22 07:33:00,
2013-02-22 02:38:00,22.8,-7.7,30.27,NW,315,3.8,4.7,25,0.00,,---,0.00,VWS V14.01,2013-02-22 07:38:00,
2013-02-22 02:40:00,22.8,-7.7,30.27,WNW,292,3.4,6.9,25,0.00,,---,0.00,VWS V14.01,2013-02-22 07:40:00,
2013-02-22 02:43:00,22.8,-7.7,30.27,West,270,4.0,6.5,25,0.00,,---,0.00,VWS V14.01,2013-02-22 07:43:00,
2013-02-22 02:48:00,22.8,-7.7,30.27,NW,315,3.8,3.8,25,0.00,,---,0.00,VWS V14.01,2013-02-22 07:48:00,
2013-02-22 02:50:00,22.8,-7.7,30.27,NW,315,1.6,6.5,25,0.00,,---,0.00,VWS V14.01,2013-02-22 07:50:00,
2013-02-22 02:53:00,22.8,-7.7,30.30,NNW,338,1.3,3.8,25,0.00,,---,0.00,VWS V14.01,2013-02-22 07:53:00,
2013-02-22 02:58:00,22.6,-7.9,30.30,WNW,292,2.5,2.9,25,0.00,,---,0.00,VWS V14.01,2013-02-22 07:58:00,
2013-02-22 03:00:00,22.6,-7.9,30.30,North,0,2.0,3.8,25,0.00,,---,0.00,VWS V14.01,2013-02-22 08:00:00,
2013-02-22 03:04:00,22.6,-7.9,30.30,NNW,338,1.1,4.9,25,0.00,,---,0.00,VWS V14.01,2013-02-22 08:04:00,
2013-02-22 03:09:00,22.6,-7.9,30.27,WNW,292,3.6,4.0,25,0.00,,---,0.00,VWS V14.01,2013-02-22 08:09:00,
2013-02-22 03:10:00,22.6,-7.9,30.27,NNW,338,3.6,4.9,25,0.00,,---,0.00,VWS V14.01,2013-02-22 08:10:00,
2013-02-22 03:14:00,22.6,-7.9,30.27,WNW,292,5.4,5.4,25,0.00,,---,0.00,VWS V14.01,2013-02-22 08:14:00,
2013-02-22 03:19:00,22.6,-7.9,30.27,North,0,3.6,4.3,25,0.00,,---,0.00,VWS V14.01,2013-02-22 08:19:00,
2013-02-22 03:20:00,22.6,-7.9,30.27,North,0,2.9,5.4,25,0.00,,---,0.00,VWS V14.01,2013-02-22 08:20:00,
2013-02-22 03:24:00,22.6,-7.9,30.27,WNW,292,2.0,5.6,25,0.00,,---,0.00,VWS V14.01,2013-02-22 08:24:00,
2013-02-22 03:29:00,22.6,-7.9,30.27,NW,315,3.6,4.9,25,0.00,,---,0.00,VWS V14.01,2013-02-22 08:29:00,
2013-02-22 03:30:00,22.5,-8.0,30.27,North,0,3.4,5.6,25,0.00,,---,0.00,VWS V14.01,2013-02-22 08:30:00,
2013-02-22 03:34:00,22.6,-7.9,30.27,North,0,4.9,7.6,25,0.00,,---,0.00,VWS V14.01,2013-02-22 08:34:00,
2013-02-22 03:39:00,22.6,-7.9,30.27,North,0,3.4,4.7,25,0.00,,---,0.00,VWS V14.01,2013-02-22 08:39:00,
2013-02-22 03:40:00,22.6,-7.9,30.27,NE,45,4.7,7.6,25,0.00,,---,0.00,VWS V14.01,2013-02-22 08:40:00,
2013-02-22 03:44:00,22.5,-8.0,30.27,NW,315,5.4,5.6,25,0.00,,---,0.00,VWS V14.01,2013-02-22 08:44:00,
2013-02-22 03:49:00,22.5,-8.0,30.27,NNE,22,1.3,2.5,25,0.00,,---,0.00,VWS V14.01,2013-02-22 08:49:00,
2013-02-22 03:50:00,22.6,-7.9,30.27,NW,315,2.5,5.6,25,0.00,,---,0.00,VWS V14.01,2013-02-22 08:50:00,
2013-02-22 03:54:00,22.6,-7.9,30.30,West,270,3.8,6.0,25,0.00,,---,0.00,VWS V14.01,2013-02-22 08:54:00,
2013-02-22 03:59:00,22.6,-7.9,30.30,NW,315,0.9,4.9,25,0.00,,---,0.00,VWS V14.01,2013-02-22 08:59:00,
2013-02-22 04:00:00,22.6,-7.9,30.30,WNW,292,2.2,6.0,25,0.00,,---,0.00,VWS V14.01,2013-02-22 09:00:00,
2013-02-22 04:04:00,22.6,-7.9,30.30,North,0,3.1,4.9,25,0.00,,---,0.00,VWS V14.01,2013-02-22 09:04:00,
2013-02-22 04:10:00,22.6,-7.9,30.30,NW,315,1.6,4.3,25,0.00,,---,0.00,VWS V14.01,2013-02-22 09:10:00,
2013-02-22 04:15:00,22.6,-7.9,30.30,North,0,2.5,4.3,25,0.00,,---,0.00,VWS V14.01,2013-02-22 09:15:00,
2013-02-22 04:20:00,22.8,-7.7,30.30,NW,315,2.5,4.9,25,0.00,,---,0.00,VWS V14.01,2013-02-22 09:20:00,
2013-02-22 04:25:00,22.8,-7.7,30.30,North,0,2.0,4.9,25,0.00,,---,0.00,VWS V14.01,2013-02-22 09:25:00,
2013-02-22 04:30:00,22.8,-7.7,30.30,North,0,3.4,6.3,25,0.00,,---,0.00,VWS V14.01,2013-02-22 09:30:00,
2013-02-22 04:35:00,22.8,-7.7,30.30,NNE,22,4.5,6.5,25,0.00,,---,0.00,VWS V14.01,2013-02-22 09:35:00,
2013-02-22 04:40:00,22.8,-7.7,30.30,North,0,4.7,4.7,25,0.00,,---,0.00,VWS V14.01,2013-02-22 09:40:00,
2013-02-22 04:45:00,22.8,-7.7,30.30,NW,315,2.7,5.8,25,0.00,,---,0.00,VWS V14.01,2013-02-22 09:45:00,
2013-02-22 04:50:00,22.8,-7.7,30.30,NNW,338,2.9,5.8,25,0.00,,---,0.00,VWS V14.01,2013-02-22 09:50:00,
2013-02-22 04:51:00,22.8,-7.7,30.30,NNW,338,2.7,3.6,25,0.00,,---,0.00,VWS V14.01,2013-02-22 09:51:00,
2013-02-22 04:56:00,22.8,-7.7,30.30,NNW,338,2.5,4.3,25,0.00,,---,0.00,VWS V14.01,2013-02-22 09:56:00,
2013-02-22 05:00:00,22.8,-7.7,30.30,NNW,338,2.2,4.3,25,0.00,,---,0.00,VWS V14.01,2013-02-22 10:00:00,
2013-02-22 05:01:00,22.8,-7.7,30.30,NW,315,2.7,3.8,25,0.00,,---,0.00,VWS V14.01,2013-02-22 10:01:00,
2013-02-22 05:06:00,22.8,-7.7,30.30,NNW,338,1.6,3.8,25,0.00,,---,0.00,VWS V14.01,2013-02-22 10:06:00,
2013-02-22 05:10:00,22.8,-7.7,30.30,NW,315,1.1,3.8,25,0.00,,---,0.00,VWS V14.01,2013-02-22 10:10:00,
2013-02-22 05:11:00,22.8,-7.7,30.30,NW,315,2.5,4.0,25,0.00,,---,0.00,VWS V14.01,2013-02-22 10:11:00,
2013-02-22 05:16:00,22.8,-7.7,30.30,NW,315,2.2,4.3,25,0.00,,---,0.00,VWS V14.01,2013-02-22 10:16:00,
2013-02-22 05:20:00,22.8,-7.7,30.30,WNW,292,0.9,4.3,25,0.00,,---,0.00,VWS V14.01,2013-02-22 10:20:00,
2013-02-22 05:21:00,22.8,-7.7,30.30,NNW,338,2.2,3.4,25,0.00,,---,0.00,VWS V14.01,2013-02-22 10:21:00,
2013-02-22 05:26:00,22.8,-7.7,30.33,NW,315,1.1,3.4,25,0.00,,---,0.00,VWS V14.01,2013-02-22 10:26:00,
2013-02-22 05:30:00,22.8,-7.7,30.33,NW,315,0.9,3.4,25,0.00,,---,0.00,VWS V14.01,2013-02-22 10:30:00,
2013-02-22 05:31:00,22.8,-7.7,30.33,NW,315,2.0,2.0,25,0.00,,---,0.00,VWS V14.01,2013-02-22 10:31:00,
2013-02-22 05:36:00,22.8,-7.7,30.33,North,0,1.1,3.1,25,0.00,,---,0.00,VWS V14.01,2013-02-22 10:36:00,
2013-02-22 05:40:00,22.8,-7.7,30.33,NNW,338,1.6,3.1,25,0.00,,---,0.00,VWS V14.01,2013-02-22 10:40:00,
2013-02-22 05:41:00,22.8,-7.7,30.33,NNW,338,1.1,2.5,25,0.00,,---,0.00,VWS V14.01,2013-02-22 10:41:00,
2013-02-22 05:47:00,22.8,-7.7,30.33,WNW,292,1.1,2.5,25,0.00,,---,0.00,VWS V14.01,2013-02-22 10:47:00,
2013-02-22 05:50:00,22.8,-7.7,30.33,WNW,292,1.1,2.5,25,0.00,,---,0.00,VWS V14.01,2013-02-22 10:50:00,
2013-02-22 05:52:00,22.8,-7.7,30.33,North,0,2.7,3.1,25,0.00,,---,0.00,VWS V14.01,2013-02-22 10:52:00,
2013-02-22 05:57:00,23.0,-7.6,30.33,NNE,22,0.9,3.1,25,0.00,,---,0.00,VWS V14.01,2013-02-22 10:57:00,
2013-02-22 06:00:00,23.0,-7.6,30.33,NNE,22,0.9,3.1,25,0.00,,---,0.00,VWS V14.01,2013-02-22 11:00:00,
2013-02-22 06:02:00,23.0,-7.6,30.33,North,0,0.9,3.8,25,0.00,,---,0.00,VWS V14.01,2013-02-22 11:02:00,
2013-02-22 06:07:00,23.0,-7.6,30.33,NNE,22,2.7,2.7,25,0.00,,---,0.00,VWS V14.01,2013-02-22 11:07:00,
2013-02-22 06:10:00,23.0,-7.6,30.33,NNE,22,2.7,3.8,25,0.00,,---,0.00,VWS V14.01,2013-02-22 11:10:00,
2013-02-22 06:12:00,23.0,-7.6,30.33,NNE,22,1.6,2.7,25,0.00,,---,0.00,VWS V14.01,2013-02-22 11:12:00,
2013-02-22 06:17:00,23.2,-8.2,30.33,NE,45,2.7,3.1,24,0.00,,---,0.00,VWS V14.01,2013-02-22 11:17:00,
2013-02-22 06:20:00,23.0,-7.6,30.33,ENE,68,0.9,3.1,25,0.00,,---,0.00,VWS V14.01,2013-02-22 11:20:00,
2013-02-22 06:22:00,23.2,-8.2,30.30,NNE,22,1.3,4.7,24,0.00,,---,0.00,VWS V14.01,2013-02-22 11:22:00,
2013-02-22 06:27:00,23.2,-8.2,30.30,NNE,22,2.9,3.4,24,0.00,,---,0.00,VWS V14.01,2013-02-22 11:27:00,
2013-02-22 06:30:00,23.9,-7.6,30.33,NE,45,2.9,3.1,24,0.00,,---,0.00,VWS V14.01,2013-02-22 11:30:00,
2013-02-22 06:33:00,23.2,-8.2,30.30,North,0,2.9,4.7,24,0.00,,---,0.00,VWS V14.01,2013-02-22 11:33:00,
2013-02-22 06:38:00,23.2,-8.2,30.33,WNW,292,2.5,2.5,24,0.00,,---,0.00,VWS V14.01,2013-02-22 11:38:00,
2013-02-22 06:40:00,23.2,-8.2,30.33,NW,315,0.9,4.7,24,0.00,,---,0.00,VWS V14.01,2013-02-22 11:40:00,
2013-02-22 06:43:00,23.2,-8.2,30.33,North,0,1.3,4.3,24,0.00,,---,0.00,VWS V14.01,2013-02-22 11:43:00,
2013-02-22 06:48:00,23.4,-8.1,30.33,North,0,1.1,3.4,24,0.00,,---,0.00,VWS V14.01,2013-02-22 11:48:00,
2013-02-22 06:50:00,23.4,-8.1,30.33,WNW,292,3.4,4.3,24,0.00,,---,0.00,VWS V14.01,2013-02-22 11:50:00,
2013-02-22 06:53:00,23.4,-8.1,30.33,WNW,292,1.6,3.4,24,0.00,,---,0.00,VWS V14.01,2013-02-22 11:53:00,
2013-02-22 06:58:00,23.4,-8.1,30.33,North,0,0.9,1.6,24,0.00,,---,0.00,VWS V14.01,2013-02-22 11:58:00,
2013-02-22 07:00:00,23.4,-8.1,30.33,NNE,22,1.3,3.4,24,0.00,,---,0.00,VWS V14.01,2013-02-22 12:00:00,
2013-02-22 07:03:00,23.4,-8.1,30.33,NE,45,0.0,3.6,24,0.00,,---,0.00,VWS V14.01,2013-02-22 12:03:00,
2013-02-22 07:08:00,23.5,-7.9,30.33,North,0,3.6,4.3,24,0.00,,---,0.00,VWS V14.01,2013-02-22 12:08:00,
2013-02-22 07:10:00,23.5,-7.9,30.33,NW,315,4.3,4.3,24,0.00,,---,0.00,VWS V14.01,2013-02-22 12:10:00,
2013-02-22 07:14:00,23.5,-7.9,30.33,NW,315,1.1,5.4,24,0.00,,---,0.00,VWS V14.01,2013-02-22 12:14:00,
2013-02-22 07:19:00,23.7,-7.8,30.33,NW,315,1.6,2.2,24,0.00,,---,0.00,VWS V14.01,2013-02-22 12:19:00,
2013-02-22 07:20:00,23.5,-7.9,30.33,North,0,2.0,5.4,24,0.00,,---,0.00,VWS V14.01,2013-02-22 12:20:00,
2013-02-22 07:24:00,23.7,-7.8,30.33,NW,315,2.9,2.9,24,0.00,,---,0.00,VWS V14.01,2013-02-22 12:24:00,
2013-02-22 07:29:00,23.9,-7.6,30.33,ENE,68,2.7,3.6,24,0.00,,---,0.00,VWS V14.01,2013-02-22 12:29:00,
2013-02-22 07:30:00,23.9,-7.6,30.33,NE,45,2.9,3.1,24,0.00,,---,0.00,VWS V14.01,2013-02-22 12:30:00,
2013-02-22 07:34:00,24.1,-7.5,30.33,NNE,22,2.2,3.8,24,0.00,,---,0.00,VWS V14.01,2013-02-22 12:34:00,
2013-02-22 07:39:00,24.3,-7.3,30.33,East,90,1.3,2.5,24,0.00,,---,0.00,VWS V14.01,2013-02-22 12:39:00,
2013-02-22 07:40:00,24.1,-7.5,30.33,North,0,2.5,3.8,24,0.00,,---,0.00,VWS V14.01,2013-02-22 12:40:00,
2013-02-22 07:44:00,24.4,-7.2,30.33,ESE,112,1.3,3.6,24,0.00,,---,0.00,VWS V14.01,2013-02-22 12:44:00,
2013-02-22 07:49:00,24.4,-7.2,30.33,NNE,22,0.0,3.8,24,0.00,,---,0.00,VWS V14.01,2013-02-22 12:49:00,
2013-02-22 07:50:00,24.4,-7.2,30.33,East,90,3.8,3.8,24,0.00,,---,0.00,VWS V14.01,2013-02-22 12:50:00,
2013-02-22 07:55:00,24.6,-7.0,30.33,NE,45,2.7,3.8,24,0.00,,---,0.00,VWS V14.01,2013-02-22 12:55:00,
2013-02-22 08:00:00,24.8,-6.9,30.33,North,0,3.8,3.8,24,0.00,,---,0.00,VWS V14.01,2013-02-22 13:00:00,
2013-02-22 08:05:00,25.0,-6.7,30.33,North,0,3.4,5.4,24,0.00,,---,0.00,VWS V14.01,2013-02-22 13:05:00,
2013-02-22 08:10:00,25.3,-6.4,30.33,NNE,22,2.2,3.8,24,0.00,,---,0.00,VWS V14.01,2013-02-22 13:10:00,
2013-02-22 08:15:00,25.3,-6.4,30.33,NE,45,2.0,4.0,24,0.00,,---,0.00,VWS V14.01,2013-02-22 13:15:00,
2013-02-22 08:20:00,25.3,-6.4,30.33,NNW,338,3.6,3.6,24,0.00,,---,0.00,VWS V14.01,2013-02-22 13:20:00,
2013-02-22 08:25:00,25.5,-6.2,30.36,North,0,2.5,4.0,24,0.00,,---,0.00,VWS V14.01,2013-02-22 13:25:00,
2013-02-22 08:30:00,25.9,-5.9,30.36,ENE,68,2.2,3.8,24,0.00,,---,0.00,VWS V14.01,2013-02-22 13:30:00,
2013-02-22 08:35:00,26.2,-5.6,30.36,East,90,0.9,3.8,24,0.00,,---,0.00,VWS V14.01,2013-02-22 13:35:00,
2013-02-22 08:40:00,26.4,-5.5,30.33,NNE,22,1.1,3.8,24,0.00,,---,0.00,VWS V14.01,2013-02-22 13:40:00,
2013-02-22 08:41:00,26.4,-5.5,30.33,NNE,22,4.3,5.4,24,0.00,,---,0.00,VWS V14.01,2013-02-22 13:41:00,
2013-02-22 08:46:00,26.8,-6.0,30.33,NNE,22,1.1,7.4,23,0.00,,---,0.00,VWS V14.01,2013-02-22 13:46:00,
2013-02-22 08:50:00,27.0,-5.9,30.33,ENE,68,2.5,7.4,23,0.00,,---,0.00,VWS V14.01,2013-02-22 13:50:00,
2013-02-22 08:51:00,27.3,-5.6,30.33,NNE,22,1.1,4.0,23,0.00,,---,0.00,VWS V14.01,2013-02-22 13:51:00,
2013-02-22 08:56:00,27.7,-5.3,30.33,NNE,22,3.6,5.8,23,0.00,,---,0.00,VWS V14.01,2013-02-22 13:56:00,
2013-02-22 09:00:00,27.7,-5.3,30.33,NNE,22,2.9,5.8,23,0.00,,---,0.00,VWS V14.01,2013-02-22 14:00:00,
2013-02-22 09:01:00,27.5,-5.4,30.33,NE,45,5.6,6.3,23,0.00,,---,0.00,VWS V14.01,2013-02-22 14:01:00,
2013-02-22 09:06:00,27.5,-5.4,30.33,ENE,68,2.7,8.5,23,0.00,,---,0.00,VWS V14.01,2013-02-22 14:06:00,
2013-02-22 09:10:00,27.3,-5.6,30.30,ENE,68,7.6,8.7,23,0.00,,---,0.00,VWS V14.01,2013-02-22 14:10:00,
2013-02-22 09:11:00,27.3,-5.6,30.30,ENE,68,7.6,11.0,23,0.00,,---,0.00,VWS V14.01,2013-02-22 14:11:00,
2013-02-22 09:16:00,27.3,-5.6,30.30,ENE,68,8.5,11.0,23,0.00,,---,0.00,VWS V14.01,2013-02-22 14:16:00,
2013-02-22 09:20:00,27.3,-5.6,30.30,NE,45,7.8,11.0,23,0.00,,---,0.00,VWS V14.01,2013-02-22 14:20:00,
2013-02-22 09:21:00,27.9,-5.1,30.30,ENE,68,4.3,7.8,23,0.00,,---,0.00,VWS V14.01,2013-02-22 14:21:00,
2013-02-22 09:26:00,27.9,-5.1,30.33,NE,45,2.5,7.8,23,0.00,,---,0.00,VWS V14.01,2013-02-22 14:26:00,
2013-02-22 09:30:00,27.9,-5.1,30.33,SE,135,2.7,7.8,23,0.00,,---,0.00,VWS V14.01,2013-02-22 14:30:00,
2013-02-22 09:31:00,27.9,-5.1,30.33,East,90,5.8,7.4,23,0.00,,---,0.00,VWS V14.01,2013-02-22 14:31:00,
2013-02-22 09:36:00,28.0,-5.0,30.30,ENE,68,4.3,7.4,23,0.00,,---,0.00,VWS V14.01,2013-02-22 14:36:00,
2013-02-22 09:40:00,28.0,-5.0,30.30,ENE,68,3.8,7.4,23,0.00,,---,0.00,VWS V14.01,2013-02-22 14:40:00,
2013-02-22 09:42:00,28.0,-5.0,30.30,ENE,68,5.4,6.5,23,0.00,,---,0.00,VWS V14.01,2013-02-22 14:42:00,
2013-02-22 09:47:00,28.4,-4.7,30.30,ESE,112,5.6,6.5,23,0.00,,---,0.00,VWS V14.01,2013-02-22 14:47:00,
2013-02-22 09:50:00,28.4,-4.7,30.30,ESE,112,5.6,6.5,23,0.00,,---,0.00,VWS V14.01,2013-02-22 14:50:00,
2013-02-22 09:52:00,28.6,-4.5,30.33,East,90,4.9,9.6,23,0.00,,---,0.00,VWS V14.01,2013-02-22 14:52:00,
2013-02-22 09:57:00,28.9,-4.2,30.33,East,90,6.9,6.9,23,0.00,,---,0.00,VWS V14.01,2013-02-22 14:57:00,
2013-02-22 10:00:00,28.9,-4.2,30.33,East,90,6.9,9.6,23,0.00,,---,0.00,VWS V14.01,2013-02-22 15:00:00,
2013-02-22 10:02:00,28.8,-4.3,30.33,East,90,4.0,7.8,23,0.00,,---,0.00,VWS V14.01,2013-02-22 15:02:00,
2013-02-22 10:07:00,29.1,-4.1,30.33,ESE,112,3.4,3.4,23,0.00,,---,0.00,VWS V14.01,2013-02-22 15:07:00,
2013-02-22 10:10:00,29.1,-4.1,30.33,ESE,112,2.5,8.7,23,0.00,,---,0.00,VWS V14.01,2013-02-22 15:10:00,
2013-02-22 10:12:00,29.8,-3.4,30.33,ENE,68,6.0,7.2,23,0.00,,---,0.00,VWS V14.01,2013-02-22 15:12:00,
2013-02-22 10:17:00,30.2,-3.1,30.33,SSE,158,6.0,6.0,23,0.00,,---,0.00,VWS V14.01,2013-02-22 15:17:00,
2013-02-22 10:20:00,30.2,-3.1,30.33,ESE,112,4.3,7.2,23,0.00,,---,0.00,VWS V14.01,2013-02-22 15:20:00,
2013-02-22 10:22:00,30.2,-3.1,30.33,East,90,4.5,9.0,23,0.00,,---,0.00,VWS V14.01,2013-02-22 15:22:00,
2013-02-22 10:27:00,30.4,-3.0,30.33,NE,45,4.3,5.8,23,0.00,,---,0.00,VWS V14.01,2013-02-22 15:27:00,
2013-02-22 10:30:00,30.2,-3.1,30.33,NNW,338,5.6,9.2,23,0.00,,---,0.00,VWS V14.01,2013-02-22 15:30:00,
2013-02-22 10:32:00,30.4,-3.0,30.33,ENE,68,5.6,7.6,23,0.00,,---,0.00,VWS V14.01,2013-02-22 15:32:00,
2013-02-22 10:37:00,30.2,-3.1,30.33,East,90,6.0,7.4,23,0.00,,---,0.00,VWS V14.01,2013-02-22 15:37:00,
2013-02-22 10:40:00,30.4,-3.0,30.33,ENE,68,4.0,8.1,23,0.00,,---,0.00,VWS V14.01,2013-02-22 15:40:00,
2013-02-22 10:43:00,30.4,-3.0,30.33,ENE,68,3.8,7.6,23,0.00,,---,0.00,VWS V14.01,2013-02-22 15:43:00,
2013-02-22 10:48:00,30.7,-2.7,30.33,ESE,112,3.8,5.8,23,0.00,,---,0.00,VWS V14.01,2013-02-22 15:48:00,
2013-02-22 10:50:00,30.7,-2.7,30.33,ENE,68,3.1,7.6,23,0.00,,---,0.00,VWS V14.01,2013-02-22 15:50:00,
2013-02-22 10:53:00,30.6,-2.8,30.33,East,90,4.7,8.5,23,0.00,,---,0.00,VWS V14.01,2013-02-22 15:53:00,
2013-02-22 10:58:00,30.9,-2.5,30.33,NE,45,3.1,4.9,23,0.00,,---,0.00,VWS V14.01,2013-02-22 15:58:00,
2013-02-22 11:00:00,30.9,-2.5,30.33,ESE,112,3.6,8.5,23,0.00,,---,0.00,VWS V14.01,2013-02-22 16:00:00,
2013-02-22 11:03:00,31.1,-2.4,30.33,East,90,3.8,6.5,23,0.00,,---,0.00,VWS V14.01,2013-02-22 16:03:00,
2013-02-22 11:08:00,31.1,-2.4,30.33,NE,45,2.0,4.9,23,0.00,,---,0.00,VWS V14.01,2013-02-22 16:08:00,
2013-02-22 11:10:00,31.1,-2.4,30.33,ENE,68,4.3,8.5,23,0.00,,---,0.00,VWS V14.01,2013-02-22 16:10:00,
2013-02-22 11:13:00,31.5,-2.0,30.33,ENE,68,5.4,8.5,23,0.00,,---,0.00,VWS V14.01,2013-02-22 16:13:00,
2013-02-22 11:18:00,32.2,-1.4,30.33,ESE,112,4.0,6.0,23,0.00,,---,0.00,VWS V14.01,2013-02-22 16:18:00,
2013-02-22 11:20:00,32.0,-1.6,30.33,ESE,112,6.0,8.7,23,0.00,,---,0.00,VWS V14.01,2013-02-22 16:20:00,
2013-02-22 11:23:00,32.2,-1.4,30.33,ESE,112,4.0,8.1,23,0.00,,---,0.00,VWS V14.01,2013-02-22 16:23:00,
2013-02-22 11:29:00,32.2,-1.4,30.33,ENE,68,5.6,10.1,23,0.00,,---,0.00,VWS V14.01,2013-02-22 16:29:00,
2013-02-22 11:30:00,32.2,-1.4,30.33,ENE,68,7.6,9.8,23,0.00,,---,0.00,VWS V14.01,2013-02-22 16:30:00,
2013-02-22 11:34:00,32.5,-1.1,30.33,East,90,5.4,10.1,23,0.00,,---,0.00,VWS V14.01,2013-02-22 16:34:00,
2013-02-22 11:39:00,32.9,-0.8,30.33,East,90,3.8,5.8,23,0.00,,---,0.00,VWS V14.01,2013-02-22 16:39:00,
2013-02-22 11:40:00,32.4,-1.3,30.33,ENE,68,4.7,10.3,23,0.00,,---,0.00,VWS V14.01,2013-02-22 16:40:00,
2013-02-22 11:44:00,33.3,-0.5,30.33,East,90,9.8,10.7,23,0.00,,---,0.00,VWS V14.01,2013-02-22 16:44:00,
2013-02-22 11:49:00,33.3,-0.5,30.33,ESE,112,3.8,6.3,23,0.00,,---,0.00,VWS V14.01,2013-02-22 16:49:00,
2013-02-22 11:50:00,33.1,-0.7,30.33,East,90,5.6,10.7,23,0.00,,---,0.00,VWS V14.01,2013-02-22 16:50:00,
2013-02-22 11:54:00,34.3,-0.6,30.30,SE,135,2.2,6.5,22,0.00,,---,0.00,VWS V14.01,2013-02-22 16:54:00,
2013-02-22 11:59:00,34.0,-0.9,30.30,East,90,4.7,6.5,22,0.00,,---,0.00,VWS V14.01,2013-02-22 16:59:00,
2013-02-22 12:00:00,34.2,-0.7,30.30,East,90,5.8,8.1,22,0.00,,---,0.00,VWS V14.01,2013-02-22 17:00:00,
2013-02-22 12:04:00,34.2,-0.7,30.30,East,90,5.8,7.8,22,0.00,,---,0.00,VWS V14.01,2013-02-22 17:04:00,
2013-02-22 12:09:00,34.5,-0.4,30.30,South,180,4.9,4.9,22,0.00,,---,0.00,VWS V14.01,2013-02-22 17:09:00,
2013-02-22 12:10:00,34.3,-0.6,30.30,East,90,2.0,7.8,22,0.00,,---,0.00,VWS V14.01,2013-02-22 17:10:00,
2013-02-22 12:14:00,34.9,-0.1,30.30,ESE,112,3.6,7.2,22,0.00,,---,0.00,VWS V14.01,2013-02-22 17:14:00,
2013-02-22 12:19:00,35.1,0.1,30.30,SE,135,4.7,6.3,22,0.00,,---,0.00,VWS V14.01,2013-02-22 17:19:00,
2013-02-22 12:20:00,35.4,0.4,30.30,South,180,2.5,7.2,22,0.00,,---,0.00,VWS V14.01,2013-02-22 17:20:00,
2013-02-22 12:25:00,34.9,-0.1,30.30,SSE,158,8.5,9.4,22,0.00,,---,0.00,VWS V14.01,2013-02-22 17:25:00,
2013-02-22 12:30:00,34.7,-0.2,30.30,East,90,3.8,8.1,22,0.00,,---,0.00,VWS V14.01,2013-02-22 17:30:00,
2013-02-22 12:35:00,34.7,-0.2,30.30,East,90,3.1,8.1,22,0.00,,---,0.00,VWS V14.01,2013-02-22 17:35:00,
2013-02-22 12:40:00,35.2,0.2,30.27,SSE,158,2.5,6.3,22,0.00,,---,0.00,VWS V14.01,2013-02-22 17:40:00,
2013-02-22 12:45:00,35.2,0.2,30.27,ENE,68,3.8,7.6,22,0.00,,---,0.00,VWS V14.01,2013-02-22 17:45:00,
2013-02-22 12:50:00,35.4,0.4,30.27,SSE,158,4.7,6.5,22,0.00,,---,0.00,VWS V14.01,2013-02-22 17:50:00,
2013-02-22 12:55:00,34.7,-0.2,30.27,ENE,68,4.9,11.0,22,0.00,,---,0.00,VWS V14.01,2013-02-22 17:55:00,
2013-02-22 13:00:00,34.9,-0.1,30.27,ESE,112,3.6,7.4,22,0.00,,---,0.00,VWS V14.01,2013-02-22 18:00:00,
2013-02-22 13:05:00,35.6,0.5,30.27,South,180,4.3,7.4,22,0.00,,---,0.00,VWS V14.01,2013-02-22 18:05:00,
2013-02-22 13:10:00,36.0,0.8,30.27,South,180,1.6,5.6,22,0.00,,---,0.00,VWS V14.01,2013-02-22 18:10:00,
2013-02-22 13:15:00,36.0,0.8,30.27,SW,225,6.5,8.1,22,0.00,,---,0.00,VWS V14.01,2013-02-22 18:15:00,
2013-02-22 13:20:00,35.6,0.5,30.27,ENE,68,6.5,8.1,22,0.00,,---,0.00,VWS V14.01,2013-02-22 18:20:00,
2013-02-22 13:25:00,36.3,1.1,30.24,ESE,112,2.7,8.1,22,0.00,,---,0.00,VWS V14.01,2013-02-22 18:25:00,
2013-02-22 13:30:00,36.3,1.1,30.24,SSW,202,4.7,8.1,22,0.00,,---,0.00,VWS V14.01,2013-02-22 18:30:00,
2013-02-22 13:31:00,36.9,1.6,30.24,SW,225,3.6,4.7,22,0.00,,---,0.00,VWS V14.01,2013-02-22 18:31:00,
2013-02-22 13:36:00,36.7,1.4,30.24,SE,135,3.8,4.9,22,0.00,,---,0.00,VWS V14.01,2013-02-22 18:36:00,
2013-02-22 13:40:00,36.9,1.6,30.27,SE,135,1.3,4.9,22,0.00,,---,0.00,VWS V14.01,2013-02-22 18:40:00,
2013-02-22 13:41:00,37.0,1.7,30.27,SW,225,2.0,6.3,22,0.00,,---,0.00,VWS V14.01,2013-02-22 18:41:00,
2013-02-22 13:46:00,36.9,1.6,30.27,South,180,4.0,10.7,22,0.00,,---,0.00,VWS V14.01,2013-02-22 18:46:00,
2013-02-22 13:50:00,36.5,1.3,30.27,SE,135,8.7,10.7,22,0.00,,---,0.00,VWS V14.01,2013-02-22 18:50:00,
2013-02-22 13:51:00,36.3,1.1,30.27,ESE,112,3.6,8.7,22,0.00,,---,0.00,VWS V14.01,2013-02-22 18:51:00,
2013-02-22 13:56:00,36.5,1.3,30.27,South,180,3.4,8.7,22,0.00,,---,0.00,VWS V14.01,2013-02-22 18:56:00,
2013-02-22 14:00:00,36.5,1.3,30.27,SSE,158,2.9,8.7,22,0.00,,---,0.00,VWS V14.01,2013-02-22 19:00:00,
2013-02-22 14:01:00,36.3,1.1,30.27,SSW,202,2.9,8.5,22,0.00,,---,0.00,VWS V14.01,2013-02-22 19:01:00,
2013-02-22 14:06:00,36.7,1.4,30.27,SSE,158,2.7,8.5,22,0.00,,---,0.00,VWS V14.01,2013-02-22 19:06:00,
2013-02-22 14:10:00,36.7,1.4,30.27,SE,135,4.3,8.5,22,0.00,,---,0.00,VWS V14.01,2013-02-22 19:10:00,
2013-02-22 14:11:00,36.5,1.3,30.27,East,90,5.4,6.0,22,0.00,,---,0.00,VWS V14.01,2013-02-22 19:11:00,
2013-02-22 14:16:00,36.3,1.1,30.27,ENE,68,4.3,6.0,22,0.00,,---,0.00,VWS V14.01,2013-02-22 19:16:00,
2013-02-22 14:20:00,36.3,1.1,30.27,ENE,68,3.8,6.0,22,0.00,,---,0.00,VWS V14.01,2013-02-22 19:20:00,
2013-02-22 14:21:00,36.3,1.1,30.27,SE,135,1.6,6.5,22,0.00,,---,0.00,VWS V14.01,2013-02-22 19:21:00,
2013-02-22 14:26:00,36.9,1.6,30.27,NNE,22,2.5,6.5,22,0.00,,---,0.00,VWS V14.01,2013-02-22 19:26:00,
2013-02-22 14:30:00,36.9,1.6,30.27,NNE,22,1.3,6.5,22,0.00,,---,0.00,VWS V14.01,2013-02-22 19:30:00,
2013-02-22 14:31:00,36.9,1.6,30.27,SE,135,2.0,5.8,22,0.00,,---,0.00,VWS V14.01,2013-02-22 19:31:00,
2013-02-22 14:37:00,36.9,1.6,30.27,SSE,158,3.4,5.8,22,0.00,,---,0.00,VWS V14.01,2013-02-22 19:37:00,
2013-02-22 14:40:00,36.9,1.6,30.27,SSE,158,3.4,5.8,22,0.00,,---,0.00,VWS V14.01,2013-02-22 19:40:00,
2013-02-22 14:42:00,36.9,1.6,30.27,SSW,202,2.2,3.6,22,0.00,,---,0.00,VWS V14.01,2013-02-22 19:42:00,
2013-02-22 14:47:00,37.0,1.7,30.27,SSW,202,2.7,5.8,22,0.00,,---,0.00,VWS V14.01,2013-02-22 19:47:00,
2013-02-22 14:50:00,37.0,1.7,30.27,SSW,202,2.7,5.8,22,0.00,,---,0.00,VWS V14.01,2013-02-22 19:50:00,
2013-02-22 14:52:00,36.7,1.4,30.24,South,180,0.9,5.8,22,0.00,,---,0.00,VWS V14.01,2013-02-22 19:52:00,
2013-02-22 14:57:00,36.9,1.6,30.24,East,90,1.1,4.9,22,0.00,,---,0.00,VWS V14.01,2013-02-22 19:57:00,
2013-02-22 15:00:00,36.9,1.6,30.24,East,90,4.9,5.8,22,0.00,,---,0.00,VWS V14.01,2013-02-22 20:00:00,
2013-02-22 15:02:00,36.9,1.6,30.24,SSW,202,3.1,6.5,22,0.00,,---,0.00,VWS V14.01,2013-02-22 20:02:00,
2013-02-22 15:07:00,36.9,1.6,30.27,South,180,2.5,4.7,22,0.00,,---,0.00,VWS V14.01,2013-02-22 20:07:00,
2013-02-22 15:10:00,36.7,1.4,30.27,SSE,158,4.7,6.5,22,0.00,,---,0.00,VWS V14.01,2013-02-22 20:10:00,
2013-02-22 15:12:00,36.7,1.4,30.27,ESE,112,4.3,5.4,22,0.00,,---,0.00,VWS V14.01,2013-02-22 20:12:00,
2013-02-22 15:17:00,36.7,1.4,30.27,East,90,2.0,3.4,22,0.00,,---,0.00,VWS V14.01,2013-02-22 20:17:00,
2013-02-22 15:20:00,36.7,1.4,30.27,SE,135,3.4,6.3,22,0.00,,---,0.00,VWS V14.01,2013-02-22 20:20:00,
2013-02-22 15:22:00,36.7,1.4,30.27,East,90,3.8,6.3,22,0.00,,---,0.00,VWS V14.01,2013-02-22 20:22:00,
2013-02-22 15:27:00,36.7,1.4,30.27,SE,135,5.4,5.4,22,0.00,,---,0.00,VWS V14.01,2013-02-22 20:27:00,
2013-02-22 15:30:00,36.7,1.4,30.27,East,90,2.9,6.3,22,0.00,,---,0.00,VWS V14.01,2013-02-22 20:30:00,
2013-02-22 15:32:00,36.7,1.4,30.27,ESE,112,3.6,5.6,22,0.00,,---,0.00,VWS V14.01,2013-02-22 20:32:00,
2013-02-22 15:38:00,36.7,1.4,30.27,East,90,2.0,4.0,22,0.00,,---,0.00,VWS V14.01,2013-02-22 20:38:00,
2013-02-22 15:40:00,36.7,1.4,30.27,SSE,158,4.0,5.6,22,0.00,,---,0.00,VWS V14.01,2013-02-22 20:40:00,
2013-02-22 15:43:00,36.7,1.4,30.27,East,90,4.0,4.9,22,0.00,,---,0.00,VWS V14.01,2013-02-22 20:43:00,
2013-02-22 15:48:00,36.7,1.4,30.27,ENE,68,2.5,4.7,22,0.00,,---,0.00,VWS V14.01,2013-02-22 20:48:00,
2013-02-22 15:50:00,36.5,1.3,30.27,East,90,4.7,6.0,22,0.00,,---,0.00,VWS V14.01,2013-02-22 20:50:00,
2013-02-22 15:53:00,36.5,1.3,30.27,SSE,158,3.6,6.3,22,0.00,,---,0.00,VWS V14.01,2013-02-22 20:53:00,
2013-02-22 15:58:00,36.7,1.4,30.27,East,90,1.6,3.4,22,0.00,,---,0.00,VWS V14.01,2013-02-22 20:58:00,
2013-02-22 16:00:00,36.7,1.4,30.27,ESE,112,2.9,6.3,22,0.00,,---,0.00,VWS V14.01,2013-02-22 21:00:00,
2013-02-22 16:03:00,36.7,1.4,30.27,NE,45,3.6,3.6,22,0.00,,---,0.00,VWS V14.01,2013-02-22 21:03:00,
2013-02-22 16:08:00,36.7,1.4,30.27,ESE,112,4.9,6.0,22,0.00,,---,0.00,VWS V14.01,2013-02-22 21:08:00,
2013-02-22 16:10:00,36.7,1.4,30.27,SE,135,3.1,4.0,22,0.00,,---,0.00,VWS V14.01,2013-02-22 21:10:00,
2013-02-22 16:13:00,36.5,1.3,30.27,East,90,3.6,7.8,22,0.00,,---,0.00,VWS V14.01,2013-02-22 21:13:00,
2013-02-22 16:18:00,36.5,1.3,30.27,East,90,2.9,5.8,22,0.00,,---,0.00,VWS V14.01,2013-02-22 21:18:00,
2013-02-22 16:20:00,36.5,1.3,30.27,East,90,5.8,7.8,22,0.00,,---,0.00,VWS V14.01,2013-02-22 21:20:00,
2013-02-22 16:23:00,36.9,1.6,30.24,SE,135,2.0,5.8,22,0.00,,---,0.00,VWS V14.01,2013-02-22 21:23:00,
2013-02-22 16:28:00,36.7,1.4,30.24,SW,225,2.0,2.0,22,0.00,,---,0.00,VWS V14.01,2013-02-22 21:28:00,
2013-02-22 16:30:00,36.7,1.4,30.24,ENE,68,1.6,5.8,22,0.00,,---,0.00,VWS V14.01,2013-02-22 21:30:00,
2013-02-22 16:34:00,36.9,1.6,30.24,NNE,22,2.2,4.9,22,0.00,,---,0.00,VWS V14.01,2013-02-22 21:34:00,
2013-02-22 16:39:00,36.7,1.4,30.24,ESE,112,2.7,3.8,22,0.00,,---,0.00,VWS V14.01,2013-02-22 21:39:00,
2013-02-22 16:40:00,36.7,1.4,30.24,East,90,3.4,5.4,22,0.00,,---,0.00,VWS V14.01,2013-02-22 21:40:00,
2013-02-22 16:44:00,36.7,1.4,30.24,East,90,2.0,5.6,22,0.00,,---,0.00,VWS V14.01,2013-02-22 21:44:00,
2013-02-22 16:49:00,36.7,1.4,30.24,East,90,3.6,3.8,22,0.00,,---,0.00,VWS V14.01,2013-02-22 21:49:00,
2013-02-22 16:50:00,36.7,1.4,30.24,ESE,112,3.4,5.6,22,0.00,,---,0.00,VWS V14.01,2013-02-22 21:50:00,
2013-02-22 16:54:00,36.7,1.4,30.27,ESE,112,2.7,5.6,22,0.00,,---,0.00,VWS V14.01,2013-02-22 21:54:00,
2013-02-22 16:59:00,36.7,1.4,30.27,ENE,68,1.1,3.1,22,0.00,,---,0.00,VWS V14.01,2013-02-22 21:59:00,
2013-02-22 17:00:00,36.7,1.4,30.27,ESE,112,2.2,5.6,22,0.00,,---,0.00,VWS V14.01,2013-02-22 22:00:00,
2013-02-22 17:04:00,36.7,1.4,30.27,East,90,2.5,3.8,22,0.00,,---,0.00,VWS V14.01,2013-02-22 22:04:00,
2013-02-22 17:09:00,36.5,1.3,30.27,SE,135,4.0,4.0,22,0.00,,---,0.00,VWS V14.01,2013-02-22 22:09:00,
2013-02-22 17:10:00,36.7,1.4,30.27,ESE,112,3.6,5.6,22,0.00,,---,0.00,VWS V14.01,2013-02-22 22:10:00,
2013-02-22 17:14:00,36.7,1.4,30.27,SE,135,3.1,4.0,22,0.00,,---,0.00,VWS V14.01,2013-02-22 22:14:00,
2013-02-22 17:19:00,36.5,1.3,30.27,NE,45,3.4,3.6,22,0.00,,---,0.00,VWS V14.01,2013-02-22 22:19:00,
2013-02-22 17:20:00,36.5,1.3,30.27,SE,135,2.2,6.5,22,0.00,,---,0.00,VWS V14.01,2013-02-22 22:20:00,
2013-02-22 17:24:00,36.5,1.3,30.27,ESE,112,4.7,4.9,22,0.00,,---,0.00,VWS V14.01,2013-02-22 22:24:00,
2013-02-22 17:29:00,36.5,1.3,30.27,ENE,68,3.1,6.5,22,0.00,,---,0.00,VWS V14.01,2013-02-22 22:29:00,
2013-02-22 17:30:00,36.5,1.3,30.27,ESE,112,5.4,6.5,22,0.00,,---,0.00,VWS V14.01,2013-02-22 22:30:00,
2013-02-22 17:35:00,36.5,1.3,30.27,East,90,2.7,6.5,22,0.00,,---,0.00,VWS V14.01,2013-02-22 22:35:00,
2013-02-22 17:40:00,36.5,1.3,30.24,ENE,68,2.7,4.3,22,0.00,,---,0.00,VWS V14.01,2013-02-22 22:40:00,
2013-02-22 17:45:00,36.5,1.3,30.24,SSE,158,2.7,5.6,22,0.00,,---,0.00,VWS V14.01,2013-02-22 22:45:00,
2013-02-22 17:50:00,36.5,1.3,30.24,ESE,112,2.5,4.9,22,0.00,,---,0.00,VWS V14.01,2013-02-22 22:50:00,
2013-02-22 17:55:00,36.3,1.1,30.24,ESE,112,4.9,5.8,22,0.00,,---,0.00,VWS V14.01,2013-02-22 22:55:00,
2013-02-22 18:00:00,36.3,1.1,30.24,ESE,112,3.6,5.8,22,0.00,,---,0.00,VWS V14.01,2013-02-22 23:00:00,
2013-02-22 18:05:00,36.3,1.1,30.24,East,90,6.3,7.8,22,0.00,,---,0.00,VWS V14.01,2013-02-22 23:05:00,
2013-02-22 18:10:00,36.3,1.1,30.24,East,90,2.0,3.8,22,0.00,,---,0.00,VWS V14.01,2013-02-22 23:10:00,
2013-02-22 18:15:00,36.3,1.1,30.24,SE,135,2.7,4.5,22,0.00,,---,0.00,VWS V14.01,2013-02-22 23:15:00,
2013-02-22 18:20:00,36.3,1.1,30.24,ESE,112,3.8,5.6,22,0.00,,---,0.00,VWS V14.01,2013-02-22 23:20:00,
2013-02-22 18:26:00,36.1,1.0,30.24,ESE,112,3.1,5.8,22,0.00,,---,0.00,VWS V14.01,2013-02-22 23:26:00,
2013-02-22 18:30:00,36.1,1.0,30.24,East,90,1.6,5.8,22,0.00,,---,0.00,VWS V14.01,2013-02-22 23:30:00,
2013-02-22 18:31:00,36.1,1.0,30.24,ESE,112,5.4,5.4,22,0.00,,---,0.00,VWS V14.01,2013-02-22 23:31:00,
2013-02-22 18:36:00,36.1,2.8,30.24,SSE,158,2.7,7.8,24,0.00,,---,0.00,VWS V14.01,2013-02-22 23:36:00,
2013-02-22 18:40:00,36.3,3.0,30.24,South,180,2.0,7.8,24,0.00,,---,0.00,VWS V14.01,2013-02-22 23:40:00,
2013-02-22 18:41:00,36.1,2.8,30.24,SSE,158,2.5,7.4,24,0.00,,---,0.00,VWS V14.01,2013-02-22 23:41:00,
2013-02-22 18:46:00,36.1,2.8,30.24,ESE,112,5.4,7.4,24,0.00,,---,0.00,VWS V14.01,2013-02-22 23:46:00,
2013-02-22 18:50:00,36.1,2.8,30.24,ESE,112,2.7,7.4,24,0.00,,---,0.00,VWS V14.01,2013-02-22 23:50:00,
2013-02-22 18:51:00,36.1,2.8,30.24,ESE,112,3.6,6.5,24,0.00,,---,0.00,VWS V14.01,2013-02-22 23:51:00,
2013-02-22 18:56:00,36.1,2.8,30.24,ESE,112,3.4,6.5,24,0.00,,---,0.00,VWS V14.01,2013-02-22 23:56:00,
2013-02-22 19:00:00,36.1,2.8,30.24,SE,135,1.1,6.5,24,0.00,,---,0.00,VWS V14.01,2013-02-23 00:00:00,
2013-02-22 19:01:00,36.0,2.7,30.24,SE,135,3.4,4.3,24,0.00,,---,0.00,VWS V14.01,2013-02-23 00:01:00,
2013-02-22 19:06:00,36.1,2.8,30.27,South,180,1.3,4.9,24,0.00,,---,0.00,VWS V14.01,2013-02-23 00:06:00,
2013-02-22 19:10:00,36.0,2.7,30.27,SSW,202,0.9,4.9,24,0.00,,---,0.00,VWS V14.01,2013-02-23 00:10:00,
2013-02-22 19:11:00,36.0,2.7,30.27,ESE,112,2.0,5.4,24,0.00,,---,0.00,VWS V14.01,2013-02-23 00:11:00,
2013-02-22 19:17:00,35.8,2.5,30.27,East,90,2.5,5.4,24,0.00,,---,0.00,VWS V14.01,2013-02-23 00:17:00,
2013-02-22 19:20:00,35.8,2.5,30.27,East,90,3.1,5.4,24,0.00,,---,0.00,VWS V14.01,2013-02-23 00:20:00,
2013-02-22 19:22:00,35.8,2.5,30.27,East,90,2.5,6.3,24,0.00,,---,0.00,VWS V14.01,2013-02-23 00:22:00,
2013-02-22 19:27:00,35.8,2.5,30.27,South,180,2.5,6.7,24,0.00,,---,0.00,VWS V14.01,2013-02-23 00:27:00,
2013-02-22 19:30:00,35.8,2.5,30.27,South,180,2.5,6.7,24,0.00,,---,0.00,VWS V14.01,2013-02-23 00:30:00,
2013-02-22 19:32:00,35.8,2.5,30.27,SE,135,3.1,6.0,24,0.00,,---,0.00,VWS V14.01,2013-02-23 00:32:00,
2013-02-22 19:37:00,35.8,2.5,30.27,ESE,112,1.1,2.5,24,0.00,,---,0.00,VWS V14.01,2013-02-23 00:37:00,
2013-02-22 19:40:00,35.8,2.5,30.27,East,90,2.5,6.0,24,0.00,,---,0.00,VWS V14.01,2013-02-23 00:40:00,
2013-02-22 19:42:00,35.8,2.5,30.27,ESE,112,2.2,3.1,24,0.00,,---,0.00,VWS V14.01,2013-02-23 00:42:00,
2013-02-22 19:47:00,35.8,2.5,30.27,SE,135,3.1,3.4,24,0.00,,---,0.00,VWS V14.01,2013-02-23 00:47:00,
2013-02-22 19:50:00,35.8,2.5,30.27,SSW,202,3.4,3.6,24,0.00,,---,0.00,VWS V14.01,2013-02-23 00:50:00,
2013-02-22 19:52:00,35.8,2.5,30.27,SSE,158,4.0,4.0,24,0.00,,---,0.00,VWS V14.01,2013-02-23 00:52:00,
2013-02-22 19:57:00,35.6,2.4,30.27,SE,135,0.9,2.5,24,0.00,,---,0.00,VWS V14.01,2013-02-23 00:57:00,
2013-02-22 20:00:00,35.6,2.4,30.27,ESE,112,2.5,4.0,24,0.00,,---,0.00,VWS V14.01,2013-02-23 01:00:00,
2013-02-22 20:02:00,35.6,2.4,30.27,ESE,112,2.0,5.8,24,0.00,,---,0.00,VWS V14.01,2013-02-23 01:02:00,
2013-02-22 20:08:00,35.4,3.1,30.27,ENE,68,2.2,2.2,25,0.00,,---,0.00,VWS V14.01,2013-02-23 01:08:00,
2013-02-22 20:10:00,35.4,3.1,30.27,ESE,112,2.0,5.8,25,0.00,,---,0.00,VWS V14.01,2013-02-23 01:10:00,
2013-02-22 20:13:00,35.4,3.1,30.27,ESE,112,2.9,6.3,25,0.00,,---,0.00,VWS V14.01,2013-02-23 01:13:00,
2013-02-22 20:18:00,35.4,3.1,30.27,SE,135,3.1,3.1,25,0.00,,---,0.00,VWS V14.01,2013-02-23 01:18:00,
2013-02-22 20:20:00,35.4,3.1,30.27,ESE,112,1.6,6.3,25,0.00,,---,0.00,VWS V14.01,2013-02-23 01:20:00,
2013-02-22 20:23:00,35.4,3.1,30.27,South,180,2.5,7.4,25,0.00,,---,0.00,VWS V14.01,2013-02-23 01:23:00,
2013-02-22 20:28:00,35.2,3.0,30.27,East,90,7.4,7.4,25,0.00,,---,0.00,VWS V14.01,2013-02-23 01:28:00,
2013-02-22 20:30:00,35.2,3.0,30.27,ESE,112,3.4,7.4,25,0.00,,---,0.00,VWS V14.01,2013-02-23 01:30:00,
2013-02-22 20:33:00,35.1,2.8,30.27,East,90,3.6,7.4,25,0.00,,---,0.00,VWS V14.01,2013-02-23 01:33:00,
2013-02-22 20:38:00,35.1,4.5,30.27,East,90,4.3,5.4,27,0.00,,---,0.00,VWS V14.01,2013-02-23 01:38:00,
2013-02-22 20:40:00,35.1,4.5,30.27,ESE,112,5.4,7.4,27,0.00,,---,0.00,VWS V14.01,2013-02-23 01:40:00,
2013-02-22 20:43:00,35.1,4.5,30.27,ESE,112,3.4,5.8,27,0.00,,---,0.00,VWS V14.01,2013-02-23 01:43:00,
2013-02-22 20:49:00,35.1,4.5,30.27,ESE,112,1.6,4.7,27,0.00,,---,0.00,VWS V14.01,2013-02-23 01:49:00,
2013-02-22 20:50:00,35.1,4.5,30.27,ESE,112,2.0,5.8,27,0.00,,---,0.00,VWS V14.01,2013-02-23 01:50:00,
2013-02-22 20:54:00,35.1,4.5,30.24,East,90,2.9,6.0,27,0.00,,---,0.00,VWS V14.01,2013-02-23 01:54:00,
2013-02-22 20:59:00,35.1,4.5,30.24,East,90,3.1,3.4,27,0.00,,---,0.00,VWS V14.01,2013-02-23 01:59:00,
2013-02-22 21:00:00,35.1,4.5,30.24,ESE,112,2.9,6.0,27,0.00,,---,0.00,VWS V14.01,2013-02-23 02:00:00,
2013-02-22 21:04:00,35.1,4.5,30.24,ESE,112,3.6,5.8,27,0.00,,---,0.00,VWS V14.01,2013-02-23 02:04:00,
2013-02-22 21:09:00,35.1,4.5,30.24,East,90,2.5,4.0,27,0.00,,---,0.00,VWS V14.01,2013-02-23 02:09:00,
2013-02-22 21:10:00,35.1,4.5,30.24,ESE,112,2.7,5.8,27,0.00,,---,0.00,VWS V14.01,2013-02-23 02:10:00,
2013-02-22 21:14:00,35.1,6.8,30.24,East,90,1.3,5.8,30,0.00,,---,0.00,VWS V14.01,2013-02-23 02:14:00,
2013-02-22 21:19:00,35.1,6.8,30.24,South,180,0.9,2.7,30,0.00,,---,0.00,VWS V14.01,2013-02-23 02:19:00,
2013-02-22 21:20:00,35.1,6.8,30.24,SSE,158,2.7,5.8,30,0.00,,---,0.00,VWS V14.01,2013-02-23 02:20:00,
2013-02-22 21:24:00,35.1,6.8,30.24,East,90,2.9,4.3,30,0.00,,---,0.00,VWS V14.01,2013-02-23 02:24:00,
2013-02-22 21:29:00,35.1,6.8,30.24,South,180,2.5,4.3,30,0.00,,---,0.00,VWS V14.01,2013-02-23 02:29:00,
2013-02-22 21:30:00,35.1,6.8,30.24,SSW,202,2.0,7.4,30,0.00,,---,0.00,VWS V14.01,2013-02-23 02:30:00,
2013-02-22 21:35:00,35.1,6.8,30.24,SE,135,3.4,4.3,30,0.00,,---,0.00,VWS V14.01,2013-02-23 02:35:00,
2013-02-22 21:40:00,35.1,6.8,30.27,South,180,1.1,4.3,30,0.00,,---,0.00,VWS V14.01,2013-02-23 02:40:00,
2013-02-22 21:45:00,35.1,6.8,30.27,SSW,202,2.7,4.3,30,0.00,,---,0.00,VWS V14.01,2013-02-23 02:45:00,
2013-02-22 21:50:00,35.2,6.9,30.27,South,180,2.5,3.8,30,0.00,,---,0.00,VWS V14.01,2013-02-23 02:50:00,
2013-02-22 21:55:00,35.2,6.9,30.24,SSE,158,0.0,3.8,30,0.00,,---,0.00,VWS V14.01,2013-02-23 02:55:00,
2013-02-22 22:00:00,35.2,6.9,30.24,SE,135,0.0,2.0,30,0.00,,---,0.00,VWS V14.01,2013-02-23 03:00:00,
2013-02-22 22:05:00,35.2,6.9,30.24,East,90,2.0,2.0,30,0.00,,---,0.00,VWS V14.01,2013-02-23 03:05:00,
2013-02-22 22:10:00,35.2,6.9,30.24,South,180,1.6,2.5,30,0.00,,---,0.00,VWS V14.01,2013-02-23 03:10:00,
2013-02-22 22:16:00,35.1,7.5,30.24,ESE,112,2.9,3.4,31,0.00,,---,0.00,VWS V14.01,2013-02-23 03:16:00,
2013-02-22 22:20:00,35.1,7.5,30.24,SE,135,0.9,3.4,31,0.00,,---,0.00,VWS V14.01,2013-02-23 03:20:00,
2013-02-22 22:21:00,35.1,7.5,30.24,ESE,112,2.2,2.2,31,0.00,,---,0.00,VWS V14.01,2013-02-23 03:21:00,
2013-02-22 22:26:00,34.9,7.3,30.24,ESE,112,3.1,4.9,31,0.00,,---,0.00,VWS V14.01,2013-02-23 03:26:00,
2013-02-22 22:30:00,34.9,7.3,30.24,East,90,3.6,4.9,31,0.00,,---,0.00,VWS V14.01,2013-02-23 03:30:00,
2013-02-22 22:31:00,34.9,7.3,30.24,ESE,112,3.4,4.3,31,0.00,,---,0.00,VWS V14.01,2013-02-23 03:31:00,
2013-02-22 22:36:00,34.9,7.3,30.24,East,90,3.4,4.9,31,0.00,,---,0.00,VWS V14.01,2013-02-23 03:36:00,
2013-02-22 22:40:00,34.9,7.3,30.24,East,90,3.6,4.9,31,0.00,,---,0.00,VWS V14.01,2013-02-23 03:40:00,
2013-02-22 22:41:00,34.7,7.9,30.24,East,90,2.5,5.4,32,0.00,,---,0.00,VWS V14.01,2013-02-23 03:41:00,
2013-02-22 22:46:00,34.7,7.9,30.24,East,90,6.0,7.8,32,0.00,,---,0.00,VWS V14.01,2013-02-23 03:46:00,
2013-02-22 22:50:00,34.7,7.9,30.24,East,90,4.9,7.8,32,0.00,,---,0.00,VWS V14.01,2013-02-23 03:50:00,
2013-02-22 22:51:00,34.5,8.4,30.21,East,90,5.4,7.2,33,0.00,,---,0.00,VWS V14.01,2013-02-23 03:51:00,
2013-02-22 22:56:00,34.5,8.4,30.21,East,90,3.8,8.5,33,0.00,,---,0.00,VWS V14.01,2013-02-23 03:56:00,
2013-02-22 23:00:00,34.5,8.4,30.21,East,90,3.8,8.5,33,0.00,,---,0.00,VWS V14.01,2013-02-23 04:00:00,
2013-02-22 23:02:00,34.5,8.4,30.21,SE,135,4.3,5.4,33,0.00,,---,0.00,VWS V14.01,2013-02-23 04:02:00,
2013-02-22 23:07:00,34.5,9.1,30.21,ESE,112,3.1,5.4,34,0.00,,---,0.00,VWS V14.01,2013-02-23 04:07:00,
2013-02-22 23:10:00,34.5,9.1,30.21,ESE,112,3.1,5.4,34,0.00,,---,0.00,VWS V14.01,2013-02-23 04:10:00,
2013-02-22 23:12:00,34.5,9.1,30.21,ESE,112,4.0,4.0,34,0.00,,---,0.00,VWS V14.01,2013-02-23 04:12:00,
2013-02-22 23:17:00,34.5,9.7,30.21,ENE,68,2.7,2.7,35,0.00,,---,0.00,VWS V14.01,2013-02-23 04:17:00,
2013-02-22 23:20:00,34.5,9.7,30.21,ENE,68,2.7,7.8,35,0.00,,---,0.00,VWS V14.01,2013-02-23 04:20:00,
2013-02-22 23:22:00,34.5,9.7,30.21,ESE,112,2.0,4.3,35,0.00,,---,0.00,VWS V14.01,2013-02-23 04:22:00,
2013-02-22 23:27:00,34.7,9.9,30.21,ESE,112,4.0,4.7,35,0.00,,---,0.00,VWS V14.01,2013-02-23 04:27:00,
2013-02-22 23:30:00,34.5,9.7,30.21,East,90,3.1,4.3,35,0.00,,---,0.00,VWS V14.01,2013-02-23 04:30:00,
2013-02-22 23:32:00,34.7,10.5,30.21,SE,135,2.2,4.7,36,0.00,,---,0.00,VWS V14.01,2013-02-23 04:32:00,
2013-02-22 23:37:00,34.7,10.5,30.21,SE,135,1.3,2.0,36,0.00,,---,0.00,VWS V14.01,2013-02-23 04:37:00,
2013-02-22 23:40:00,34.7,10.5,30.21,SE,135,1.6,4.7,36,0.00,,---,0.00,VWS V14.01,2013-02-23 04:40:00,
2013-02-22 23:43:00,34.9,10.6,30.21,ESE,112,3.6,3.6,36,0.00,,---,0.00,VWS V14.01,2013-02-23 04:43:00,
2013-02-22 23:48:00,34.9,11.9,30.21,ENE,68,3.8,3.8,38,0.00,,---,0.00,VWS V14.01,2013-02-23 04:48:00,
2013-02-22 23:50:00,34.9,11.9,30.21,ESE,112,2.5,4.0,38,0.00,,---,0.00,VWS V14.01,2013-02-23 04:50:00,
2013-02-22 23:53:00,34.9,13.0,30.18,ESE,112,4.3,5.8,40,0.00,,---,0.00,VWS V14.01,2013-02-23 04:53:00,
2013-02-22 23:58:00,35.1,13.2,30.18,East,90,2.7,3.8,40,0.00,,---,0.00,VWS V14.01,2013-02-23 04:58:00,